Notices

What's New in latest Release from April 7th, 2021:

- Updated Glossary, including Speed of Maximum Gust, and Total Hourly Precipitation

- Updated national and regional climate services offices contacts and prices information

- Addition of station inventory lists for 1981-2010, 1971-2000, and 1961-1990 Normals.

If you haven't already, please take our survey and provide feedback about our website: https://eccc.sondage-survey.ca/f/LanguageSelection.aspx?s=442ca660-fcf1-47c0-95a9-59707d6fd709

Hourly Data Report for December 10, 2019

CARBERRY CS
MANITOBA
Current Station Operator: ECCC - MSC

49°54'20.900" N
99°21'26.800" W
383.50 m
5010547
71170
WZE

Download Data

Hourly Data (December 2019)
Hourly Data Report for December 10, 2019
TIME
LST
Temp Definition
°C
Dew Point Definition
°C
Rel Hum Definition
%
Precip. Amount Definition
mm

Wind Dir Definition
10's deg

Wind Spd Definition
km/h
Visibility Definition
km
Stn Press Definition
kPa
Hmdx Definition


Wind Chill Definition


Weather Definition


00:00 -27.0 -30.4 73 0.0 31 6   97.50   -33 LegendNANA
01:00 -27.2 -30.0 78 0.0 25 7   97.54   -34 LegendNANA
02:00 -28.2 -31.2 76 0.0 26 12   97.55   -38 LegendNANA
03:00 -29.1 -32.4 73 0.0 26 13   97.57   -39 LegendNANA
04:00 -26.9 -30.1 75 0.0 25 14   97.57   -37 LegendNANA
05:00 -26.7 -29.9 74 0.0 25 13   97.53   -37 LegendNANA
06:00 -26.8 -30.1 74 0.0 26 22   97.51   -40 LegendNANA
07:00 -26.4 -29.7 74 0.0 26 22   97.46   -39 LegendNANA
08:00 -26.2 -29.6 73 0.0 25 17   97.38   -37 LegendNANA
09:00 -26.0 -29.4 73 0.0 24 14   97.30   -36 LegendNANA
10:00 -24.7 -28.5 71 0.0 25 25   97.29   -38 LegendNANA
11:00 -23.1 -27.5 67 0.2 25 18   97.26   -34 LegendNANA
12:00 -21.8 -26.7 64 0.0 25 22   97.15   -33 LegendNANA
13:00 -20.5 -25.6 63 0.0 26 21   97.08   -31 LegendNANA
14:00 -19.7 -24.8 64 0.0 26 28   97.02   -32 LegendNANA
15:00 -18.7 -23.9 64 0.0 27 25   97.00   -30 LegendNANA
16:00 -19.0 -24.1 64 0.0 28 31   97.03   -31 LegendNANA
17:00 -20.6 -24.7 69 0.0 29 19   97.13   -31 LegendNANA
18:00 -21.9 -25.8 71 0.0 29 15   97.22   -31 LegendNANA
19:00 -22.2 -26.2 70 0.0 29 15   97.30   -32 LegendNANA
20:00 -23.1 -26.9 71 0.0 29 17   97.40   -34 LegendNANA
21:00 -23.1 -27.1 70 0.0 28 18   97.45   -34 LegendNANA
22:00 -23.5 -27.4 70 0.0 25 17   97.51   -34 LegendNANA
23:00 -24.0 -27.7 72 0.0 26 17   97.58   -35 LegendNANA

Notes on Data Quality.

Legend

  • E = Estimated
  • M = Missing
  • NA = Not Available*
  • [empty] = Indicates an unobserved value
Date modified: